STARLINK-34601, 65084

Orbit data source: Space-Track

STARLINK-34601, 65084 is a payload satellite owned by SpaceX/Seattle (US) in LEO that was launched on Mon, 04 Aug 2025 UTC via an FALCON 9 launch vehicle from the Air Force Eastern Test Range (AFETR). Payload-class satellites include a variety of spacecraft equipped with specific instruments for various scientific and technological missions. These include communications satellites like Starlink; space stations such as the ISS; scientific satellites like the Hubble; Earth observation satellites from companies like Planet Labs, Umbra, and HawkEye 360; GPS; miniature CubeSats for education and research; and military/defense satellites.

Loading next visibility...
Identifier
65084, 2025-167G
Orbit
LEO
Country
Flag of USUS
Related business
Manufacturer
SpaceX/Seattle
Mission
Operational spacecraft
Bus & Motor
STARLINK V2MO, Unknown motor
Mass
575 kg wet, ~530 kg dry
Launch date (UTC)
2025-08-04 (1 month ago)
Launch vehicle
FALCON 9
Launch site
Air Force Eastern Test Range (AFETR)
Object type
Payload
Rocket body
Debris
Shape & HBR
Unknown
Radar Cross Section
Large (>1 m²)

Expand to show TLE details & history
Last TLE update: 9 hours ago

TLE from 9 hours ago
0 STARLINK-34601
1 65084U 25167G   25243.24434310  .00573908  00000-0  36127-2 0  9994
2 65084  53.1574 194.7118 0000426 130.6093 229.4964 15.74501764  4274
Epoch: 2025-08-31T05:51Z
TLE epoch observation values (Epoch: 2025-08-31T05:51:51.243Z)
Latitude
-0.00005°
Longitude
127.08119°
Altitude
347.152 km
Speed
7.702 km/s
True Right ascension
12h 58m 50s
True Declination
0° 00' 00"
Sunlit
Object was in daylight at epoch
Visualization orbit readout
Latitude
Unknown
Longitude
Unknown
Altitude
Unknown
Speed
Unknown
Apparent Right ascension
Unknown
Apparent Declination
Unknown
Sunlit
N/A
Visualization observer readout
Local Sidereal Time
06:14:57
Azimuth
Unknown
Elevation
Unknown
Doppler factor
Unknown
Orbital elements
Apogee altitude
346.597 km
Perigee altitude
346.025 km
Semi-major axis
6,724.448 km
Eccentricity
0.00004
Inclination
53.1574°
RAAN
194.7118°
Arg. of periapsis
130.6093°
True anomaly
229.49269°
Mean anomaly
229.4964°
Eccentric anomaly
229.49454°
Mean motion
3.93603 °/min
Orbital period
91.46 mins
BSTAR
0.0036127
Loading maneuver chart data...
Computing Atmospheric mass density...
Loading historical data...
Loading historical data...
Loading historical data...
Loading historical data...
Loading historical data...
Loading historical data...
Loading historical data...

Documentation

Showing up to 5 results
|